| time (UTC) | temp F | wind direction | speed MPH | gust MPH | rain 1hr in | rain 24hr in | rain mn in | humidity % | barometer mb |
| 20260509092533 | 42 | 37 | 0.0 | 1.0 | 0.00 | 0.00 | 0.00 | 73 | 1012.3 |
| 20260509092033 | 41 | 256 | 0.0 | 0.0 | 0.00 | 0.00 | 0.00 | 73 | 1012.5 |
| 20260509090033 | 41 | 156 | 0.0 | 0.0 | 0.00 | 0.00 | 0.00 | 76 | 1012.3 |
| 20260509085532 | 41 | 227 | 0.0 | 0.0 | 0.00 | 0.00 | 0.00 | 74 | 1012.5 |
| 20260509085033 | 40 | 227 | 0.0 | 0.0 | 0.00 | 0.00 | 0.00 | 74 | 1012.4 |
| 20260509084532 | 40 | 227 | 0.0 | 1.0 | 0.00 | 0.00 | 0.00 | 77 | 1012.5 |
| 20260509084033 | 40 | 269 | 1.0 | 1.0 | 0.00 | 0.00 | 0.00 | 75 | 1012.7 |
| 20260509083533 | 40 | 218 | 1.0 | 2.0 | 0.00 | 0.00 | 0.00 | 80 | 1012.5 |
| 20260509083033 | 40 | 230 | 1.0 | 1.0 | 0.00 | 0.00 | 0.00 | 76 | 1012.4 |
| 20260509082033 | 40 | 232 | 0.0 | 1.0 | 0.00 | 0.00 | 0.00 | 74 | 1012.3 |
| 20260509081532 | 40 | 243 | 0.0 | 1.0 | 0.00 | 0.00 | 0.00 | 78 | 1012.4 |
| 20260509081033 | 40 | 227 | 1.0 | 2.0 | 0.00 | 0.00 | 0.00 | 80 | 1012.5 |
| 20260509080533 | 40 | 235 | 2.0 | 2.0 | 0.00 | 0.00 | 0.00 | 80 | 1012.7 |
| 20260509080033 | 39 | 230 | 1.0 | 2.0 | 0.00 | 0.00 | 0.00 | 82 | 1012.7 |
| 20260509075532 | 39 | 143 | 0.0 | 0.0 | 0.00 | 0.00 | 0.00 | 82 | 1012.7 |
| 20260509075032 | 40 | 102 | 1.0 | 1.0 | 0.00 | 0.00 | 0.00 | 80 | 1012.6 |
| 20260509074033 | 42 | 186 | 1.0 | 2.0 | 0.00 | 0.00 | 0.00 | 70 | 1012.4 |
| 20260509073533 | 43 | 220 | 1.0 | 1.0 | 0.00 | 0.00 | 0.00 | 65 | 1012.5 |
| 20260509072533 | 42 | 244 | 0.0 | 1.0 | 0.00 | 0.00 | 0.00 | 69 | 1012.5 |
| 20260509072033 | 42 | 245 | 0.0 | 1.0 | 0.00 | 0.00 | 0.00 | 70 | 1012.6 |
| 20260509071533 | 42 | 246 | 1.0 | 1.0 | 0.00 | 0.00 | 0.00 | 71 | 1012.7 |
| 20260509071033 | 42 | 250 | 1.0 | 1.0 | 0.00 | 0.00 | 0.00 | 71 | 1012.7 |
| 20260509070533 | 42 | 246 | 1.0 | 2.0 | 0.00 | 0.00 | 0.00 | 71 | 1012.7 |
| 20260509070033 | 42 | 253 | 1.0 | 2.0 | 0.00 | 0.00 | 0.00 | 71 | 1012.7 |
| 20260509065532 | 42 | 239 | 1.0 | 2.0 | 0.00 | 0.00 | 0.00 | 71 | 1012.7 |
| 20260509065033 | 42 | 240 | 1.0 | 2.0 | 0.00 | 0.00 | 0.00 | 72 | 1012.7 |
| 20260509064532 | 42 | 246 | 1.0 | 2.0 | 0.00 | 0.00 | 0.00 | 70 | 1012.7 |
| 20260509064032 | 42 | 249 | 1.0 | 2.0 | 0.00 | 0.00 | 0.00 | 72 | 1012.6 |
| 20260509063532 | 42 | 244 | 1.0 | 1.0 | 0.00 | 0.00 | 0.00 | 71 | 1012.6 |
| 20260509063032 | 42 | 237 | 1.0 | 2.0 | 0.00 | 0.00 | 0.00 | 71 | 1012.5 |
| 20260509062533 | 42 | 248 | 1.0 | 1.0 | 0.00 | 0.00 | 0.00 | 71 | 1012.4 |
| 20260509062032 | 42 | 241 | 1.0 | 1.0 | 0.00 | 0.00 | 0.00 | 70 | 1012.5 |
| 20260509061532 | 42 | 244 | 1.0 | 2.0 | 0.00 | 0.00 | 0.00 | 70 | 1012.5 |
| 20260509061033 | 42 | 230 | 2.0 | 2.0 | 0.00 | 0.00 | 0.00 | 72 | 1012.4 |
| 20260509060533 | 42 | 215 | 1.0 | 1.0 | 0.00 | 0.00 | 0.00 | 69 | 1012.2 |
| 20260509054532 | 43 | 236 | 0.0 | 1.0 | 0.00 | 0.00 | 0.00 | 69 | 1012.4 |
| 20260509054032 | 43 | 230 | 1.0 | 2.0 | 0.00 | 0.00 | 0.00 | 70 | 1012.5 |
| 20260509053533 | 43 | 236 | 1.0 | 1.0 | 0.00 | 0.00 | 0.00 | 70 | 1012.5 |
| 20260509053032 | 43 | 240 | 1.0 | 1.0 | 0.00 | 0.00 | 0.00 | 69 | 1012.4 |
| 20260509052533 | 43 | 222 | 1.0 | 1.0 | 0.00 | 0.00 | 0.00 | 68 | 1012.6 |
| 20260509052033 | 43 | 236 | 0.0 | 1.0 | 0.00 | 0.00 | 0.00 | 69 | 1012.4 |
| 20260509051533 | 43 | 238 | 0.0 | 0.0 | 0.00 | 0.00 | 0.00 | 67 | 1012.3 |
| 20260509051032 | 43 | 233 | 0.0 | 1.0 | 0.00 | 0.00 | 0.00 | 69 | 1012.4 |
| 20260509050532 | 43 | 219 | 0.0 | 1.0 | 0.00 | 0.00 | 0.00 | 69 | 1012.4 |
| 20260509050032 | 43 | 225 | 1.0 | 2.0 | 0.00 | 0.00 | 0.00 | 68 | 1012.5 |
| 20260509045032 | 44 | 244 | 0.0 | 1.0 | 0.00 | 0.00 | 0.00 | 64 | 1012.3 |
| 20260509044032 | 44 | 239 | 1.0 | 2.0 | 0.00 | 0.00 | 0.00 | 64 | 1012.4 |
| 20260509043532 | 44 | 236 | 1.0 | 1.0 | 0.00 | 0.00 | 0.00 | 64 | 1012.3 |
| 20260509043032 | 44 | 230 | 1.0 | 1.0 | 0.00 | 0.00 | 0.00 | 67 | 1012.3 |
| 20260509042532 | 44 | 238 | 0.0 | 0.0 | 0.00 | 0.00 | 0.00 | 65 | 1012.1 |
| 20260509042031 | 44 | 237 | 0.0 | 0.0 | 0.00 | 0.00 | 0.00 | 65 | 1012.2 |
| 20260509041032 | 44 | 277 | 0.0 | 0.0 | 0.00 | 0.00 | 0.00 | 64 | 1012.1 |
| 20260509040531 | 44 | 275 | 0.0 | 0.0 | 0.00 | 0.00 | 0.00 | 64 | 1012.1 |
| 20260509040032 | 44 | 261 | 0.0 | 1.0 | 0.00 | 0.00 | 0.00 | 65 | 1012.2 |
| 20260509035532 | 44 | 250 | 0.0 | 1.0 | 0.00 | 0.00 | 0.00 | 65 | 1012.0 |
| 20260509035032 | 44 | 253 | 0.0 | 1.0 | 0.00 | 0.00 | 0.00 | 66 | 1011.9 |
| 20260509034532 | 44 | 212 | 0.0 | 1.0 | 0.00 | 0.00 | 0.00 | 65 | 1011.9 |
| 20260509034032 | 45 | 264 | 0.0 | 0.0 | 0.00 | 0.00 | 0.00 | 63 | 1011.8 |
| 20260509033532 | 45 | 264 | 0.0 | 0.0 | 0.00 | 0.00 | 0.00 | 62 | 1011.8 |
| 20260509033032 | 45 | 248 | 0.0 | 1.0 | 0.00 | 0.00 | 0.00 | 63 | 1011.8 |
| 20260509032532 | 45 | 242 | 1.0 | 1.0 | 0.00 | 0.00 | 0.00 | 62 | 1011.9 |
| 20260509032032 | 45 | 243 | 0.0 | 1.0 | 0.00 | 0.00 | 0.00 | 63 | 1011.9 |
| 20260509031032 | 45 | 246 | 1.0 | 1.0 | 0.00 | 0.00 | 0.00 | 61 | 1011.8 |
| 20260509030532 | 45 | 246 | 1.0 | 1.0 | 0.00 | 0.00 | 0.00 | 62 | 1011.9 |
| 20260509030032 | 46 | 229 | 0.0 | 1.0 | 0.00 | 0.00 | 0.00 | 62 | 1011.8 |
| 20260509025532 | 46 | 249 | 0.0 | 1.0 | 0.00 | 0.00 | 0.00 | 61 | 1011.7 |
| 20260509025032 | 46 | 218 | 1.0 | 2.0 | 0.00 | 0.00 | 0.00 | 60 | 1011.8 |
| 20260509024532 | 46 | 236 | 1.0 | 2.0 | 0.00 | 0.00 | 0.00 | 60 | 1011.8 |
| 20260509024032 | 46 | 240 | 1.0 | 2.0 | 0.00 | 0.00 | 0.00 | 58 | 1011.6 |
| 20260509023532 | 47 | 245 | 1.0 | 2.0 | 0.00 | 0.00 | 0.00 | 58 | 1011.6 |
| 20260509023032 | 47 | 233 | 1.0 | 2.0 | 0.00 | 0.00 | 0.00 | 58 | 1011.7 |
| 20260509022532 | 47 | 244 | 1.0 | 2.0 | 0.00 | 0.00 | 0.00 | 58 | 1011.7 |
| 20260509022031 | 47 | 257 | 1.0 | 2.0 | 0.00 | 0.00 | 0.00 | 59 | 1011.7 |
| 20260509021532 | 47 | 237 | 1.0 | 2.0 | 0.00 | 0.00 | 0.00 | 58 | 1011.6 |
| 20260509020531 | 47 | 247 | 1.0 | 2.0 | 0.00 | 0.00 | 0.00 | 59 | 1011.7 |
| 20260509020032 | 47 | 252 | 1.0 | 2.0 | 0.00 | 0.00 | 0.00 | 59 | 1011.6 |
| 20260509015532 | 47 | 241 | 1.0 | 2.0 | 0.00 | 0.00 | 0.00 | 59 | 1011.4 |
| 20260509015031 | 47 | 238 | 1.0 | 2.0 | 0.00 | 0.00 | 0.00 | 58 | 1011.3 |
| 20260509014532 | 47 | 255 | 1.0 | 2.0 | 0.00 | 0.00 | 0.00 | 59 | 1011.2 |
| 20260509014032 | 47 | 260 | 1.0 | 2.0 | 0.00 | 0.00 | 0.00 | 59 | 1011.2 |
| 20260509012532 | 48 | 235 | 0.0 | 1.0 | 0.00 | 0.00 | 0.00 | 58 | 1010.9 |
| 20260509011531 | 48 | 261 | 1.0 | 2.0 | 0.00 | 0.00 | 0.00 | 58 | 1010.6 |
| 20260509011032 | 48 | 249 | 1.0 | 2.0 | 0.00 | 0.00 | 0.00 | 57 | 1010.6 |
| 20260509010032 | 48 | 246 | 1.0 | 2.0 | 0.00 | 0.00 | 0.00 | 55 | 1010.3 |
| 20260509005532 | 48 | 258 | 1.0 | 2.0 | 0.00 | 0.00 | 0.00 | 55 | 1010.2 |
| 20260509005031 | 49 | 237 | 1.0 | 1.0 | 0.00 | 0.00 | 0.00 | 55 | 1010.2 |
| 20260509004532 | 49 | 227 | 1.0 | 2.0 | 0.00 | 0.00 | 0.00 | 55 | 1010.2 |
| 20260509003031 | 49 | 246 | 1.0 | 2.0 | 0.00 | 0.00 | 0.00 | 53 | 1009.8 |
| 20260509002531 | 49 | 250 | 1.0 | 1.0 | 0.00 | 0.00 | 0.00 | 53 | 1009.6 |
| 20260509002031 | 49 | 234 | 1.0 | 1.0 | 0.00 | 0.00 | 0.00 | 53 | 1009.5 |
| 20260509001531 | 50 | 240 | 0.0 | 1.0 | 0.00 | 0.00 | 0.00 | 52 | 1009.4 |
| 20260509001032 | 50 | 249 | 1.0 | 2.0 | 0.00 | 0.00 | 0.00 | 51 | 1009.2 |
| 20260509000532 | 51 | 255 | 1.0 | 2.0 | 0.00 | 0.00 | 0.00 | 49 | 1009.3 |
| 20260509000031 | 51 | 279 | 1.0 | 2.0 | 0.00 | 0.00 | 0.00 | 49 | 1009.1 |
| 20260508235532 | 51 | 246 | 1.0 | 2.0 | 0.00 | 0.00 | 0.00 | 48 | 1009.2 |
| 20260508235032 | 51 | 244 | 1.0 | 2.0 | 0.00 | 0.00 | 0.00 | 48 | 1009.0 |
| 20260508234531 | 52 | 256 | 1.0 | 2.0 | 0.00 | 0.00 | 0.00 | 47 | 1008.9 |
| 20260508234031 | 52 | 259 | 1.0 | 2.0 | 0.00 | 0.00 | 0.00 | 45 | 1008.9 |
| 20260508233532 | 53 | 256 | 1.0 | 2.0 | 0.00 | 0.00 | 0.00 | 45 | 1008.7 |
| 20260508233031 | 53 | 225 | 2.0 | 5.0 | 0.00 | 0.00 | 0.00 | 44 | 1008.6 |
| 20260508232031 | 53 | 249 | 2.0 | 3.0 | 0.00 | 0.00 | 0.00 | 41 | 1008.7 |
| 20260508231531 | 54 | 251 | 2.0 | 5.0 | 0.00 | 0.00 | 0.00 | 42 | 1008.5 |
| 20260508231031 | 54 | 247 | 2.0 | 3.0 | 0.00 | 0.00 | 0.00 | 41 | 1008.5 |
| 20260508230531 | 54 | 241 | 1.0 | 6.0 | 0.00 | 0.00 | 0.00 | 41 | 1008.5 |
| 20260508230032 | 54 | 289 | 2.0 | 3.0 | 0.00 | 0.00 | 0.00 | 40 | 1008.4 |
| 20260508225531 | 54 | 296 | 3.0 | 5.0 | 0.00 | 0.00 | 0.00 | 40 | 1008.2 |
| 20260508225031 | 55 | 295 | 1.0 | 3.0 | 0.00 | 0.00 | 0.00 | 40 | 1008.4 |
| 20260508224531 | 55 | 193 | 1.0 | 5.0 | 0.00 | 0.00 | 0.00 | 41 | 1008.4 |
| 20260508224031 | 55 | 165 | 1.0 | 5.0 | 0.00 | 0.00 | 0.00 | 40 | 1008.3 |
| 20260508223031 | 55 | 256 | 2.0 | 5.0 | 0.00 | 0.00 | 0.00 | 40 | 1008.2 |
| 20260508222031 | 55 | 282 | 2.0 | 5.0 | 0.00 | 0.00 | 0.00 | 40 | 1008.1 |
| 20260508220531 | 55 | 258 | 3.0 | 6.0 | 0.00 | 0.00 | 0.00 | 40 | 1008.3 |
| 20260508220031 | 56 | 238 | 2.0 | 7.0 | 0.00 | 0.00 | 0.00 | 40 | 1008.2 |
| 20260508215531 | 56 | 246 | 2.0 | 5.0 | 0.00 | 0.00 | 0.00 | 41 | 1008.2 |
| 20260508215031 | 56 | 274 | 2.0 | 8.0 | 0.00 | 0.00 | 0.00 | 41 | 1008.2 |
| 20260508214531 | 56 | 273 | 2.0 | 8.0 | 0.00 | 0.00 | 0.00 | 40 | 1008.1 |
| 20260508214032 | 56 | 270 | 2.0 | 6.0 | 0.00 | 0.00 | 0.00 | 40 | 1008.1 |
| 20260508213532 | 56 | 263 | 2.0 | 5.0 | 0.00 | 0.00 | 0.00 | 40 | 1008.1 |
| 20260508212531 | 56 | 278 | 2.0 | 6.0 | 0.00 | 0.00 | 0.00 | 39 | 1008.1 |
| 20260508212031 | 57 | 239 | 1.0 | 5.0 | 0.00 | 0.00 | 0.00 | 39 | 1008.1 |
| 20260508211031 | 57 | 222 | 2.0 | 5.0 | 0.00 | 0.00 | 0.00 | 37 | 1008.1 |
| 20260508210531 | 57 | 261 | 3.0 | 6.0 | 0.00 | 0.00 | 0.00 | 36 | 1008.0 |
| 20260508210031 | 57 | 213 | 4.0 | 6.0 | 0.00 | 0.00 | 0.00 | 38 | 1007.8 |
| 20260508205031 | 56 | 20 | 3.0 | 8.0 | 0.00 | 0.00 | 0.00 | 40 | 1008.0 |
| 20260508204531 | 55 | 277 | 3.0 | 6.0 | 0.00 | 0.00 | 0.00 | 40 | 1008.0 |
| 20260508204031 | 55 | 319 | 2.0 | 5.0 | 0.00 | 0.00 | 0.00 | 40 | 1008.0 |
| 20260508203031 | 56 | 249 | 5.0 | 9.0 | 0.00 | 0.00 | 0.00 | 40 | 1008.0 |
| 20260508201531 | 57 | 230 | 3.0 | 6.0 | 0.00 | 0.00 | 0.00 | 41 | 1007.8 |
| 20260508201031 | 57 | 244 | 3.0 | 5.0 | 0.00 | 0.00 | 0.00 | 39 | 1007.9 |
| 20260508200531 | 57 | 321 | 3.0 | 6.0 | 0.00 | 0.00 | 0.00 | 39 | 1007.7 |
| 20260508200031 | 57 | 227 | 3.0 | 6.0 | 0.00 | 0.00 | 0.00 | 38 | 1007.8 |
| 20260508195530 | 57 | 242 | 3.0 | 7.0 | 0.00 | 0.00 | 0.00 | 38 | 1007.6 |
| 20260508195031 | 58 | 269 | 3.0 | 6.0 | 0.00 | 0.00 | 0.00 | 36 | 1007.5 |
| 20260508194530 | 58 | 238 | 3.0 | 7.0 | 0.00 | 0.00 | 0.00 | 37 | 1007.5 |
| 20260508194031 | 58 | 261 | 4.0 | 7.0 | 0.00 | 0.00 | 0.00 | 41 | 1007.4 |
| 20260508193530 | 57 | 280 | 3.0 | 7.0 | 0.00 | 0.00 | 0.00 | 37 | 1007.5 |
| 20260508193031 | 57 | 238 | 3.0 | 7.0 | 0.00 | 0.00 | 0.00 | 37 | 1007.5 |
| 20260508192530 | 57 | 343 | 2.0 | 5.0 | 0.00 | 0.00 | 0.00 | 36 | 1007.3 |
| 20260508192031 | 56 | 308 | 3.0 | 6.0 | 0.00 | 0.00 | 0.00 | 36 | 1007.3 |
| 20260508191031 | 56 | 258 | 3.0 | 7.0 | 0.00 | 0.00 | 0.00 | 36 | 1007.4 |
| 20260508190531 | 56 | 277 | 3.0 | 9.0 | 0.00 | 0.00 | 0.00 | 38 | 1007.4 |
| 20260508190030 | 57 | 332 | 2.0 | 13.0 | 0.00 | 0.00 | 0.00 | 38 | 1007.5 |
| 20260508185530 | 58 | 230 | 3.0 | 7.0 | 0.00 | 0.00 | 0.00 | 34 | 1007.3 |
| 20260508185030 | 58 | 314 | 3.0 | 5.0 | 0.00 | 0.00 | 0.00 | 33 | 1007.3 |
| 20260508184531 | 59 | 11 | 2.0 | 7.0 | 0.00 | 0.00 | 0.00 | 33 | 1007.2 |
| 20260508184031 | 59 | 337 | 4.0 | 8.0 | 0.00 | 0.00 | 0.00 | 34 | 1007.3 |
| 20260508183531 | 59 | 301 | 3.0 | 8.0 | 0.00 | 0.00 | 0.00 | 33 | 1007.2 |
| 20260508183030 | 59 | 285 | 4.0 | 7.0 | 0.00 | 0.00 | 0.00 | 34 | 1007.3 |
| 20260508182530 | 58 | 271 | 1.0 | 3.0 | 0.00 | 0.00 | 0.00 | 34 | 1007.3 |
| 20260508182030 | 58 | 5 | 3.0 | 8.0 | 0.00 | 0.00 | 0.00 | 32 | 1007.4 |
| 20260508181531 | 59 | 15 | 3.0 | 9.0 | 0.00 | 0.00 | 0.00 | 30 | 1007.2 |
| 20260508181030 | 59 | 221 | 3.0 | 7.0 | 0.00 | 0.00 | 0.00 | 30 | 1007.2 |
| 20260508180530 | 60 | 264 | 2.0 | 7.0 | 0.00 | 0.00 | 0.00 | 31 | 1007.3 |
| 20260508180030 | 60 | 258 | 2.0 | 7.0 | 0.00 | 0.00 | 0.00 | 32 | 1007.3 |
| 20260508175531 | 59 | 291 | 3.0 | 9.0 | 0.00 | 0.00 | 0.00 | 31 | 1007.2 |
| 20260508174530 | 61 | 342 | 3.0 | 6.0 | 0.00 | 0.00 | 0.00 | 29 | 1007.2 |
| 20260508174030 | 61 | 262 | 3.0 | 10.0 | 0.00 | 0.00 | 0.00 | 31 | 1007.2 |
| 20260508173530 | 61 | 234 | 3.0 | 6.0 | 0.00 | 0.00 | 0.00 | 30 | 1007.0 |
| 20260508173031 | 61 | 248 | 3.0 | 7.0 | 0.00 | 0.00 | 0.00 | 34 | 1007.2 |
| 20260508172030 | 61 | 182 | 2.0 | 9.0 | 0.00 | 0.00 | 0.00 | 28 | 1007.3 |
| 20260508171531 | 60 | 241 | 3.0 | 7.0 | 0.00 | 0.00 | 0.00 | 35 | 1007.3 |
| 20260508171031 | 60 | 312 | 2.0 | 7.0 | 0.00 | 0.00 | 0.00 | 33 | 1007.2 |
| 20260508170030 | 60 | 233 | 3.0 | 8.0 | 0.00 | 0.00 | 0.00 | 31 | 1007.3 |
| 20260508165530 | 59 | 116 | 2.0 | 6.0 | 0.00 | 0.00 | 0.00 | 35 | 1007.3 |
| 20260508165032 | 59 | 190 | 3.0 | 6.0 | 0.00 | 0.00 | 0.00 | 35 | 1007.6 |
| 20260508164530 | 59 | 233 | 4.0 | 13.0 | 0.00 | 0.00 | 0.00 | 33 | 1007.4 |
| 20260508164030 | 60 | 257 | 3.0 | 6.0 | 0.00 | 0.00 | 0.00 | 30 | 1007.4 |
| 20260508163531 | 61 | 326 | 2.0 | 6.0 | 0.00 | 0.00 | 0.00 | 34 | 1007.6 |
| 20260508163031 | 60 | 257 | 3.0 | 5.0 | 0.00 | 0.00 | 0.00 | 34 | 1007.6 |
| 20260508162530 | 59 | 244 | 2.0 | 8.0 | 0.00 | 0.00 | 0.00 | 35 | 1007.6 |
| 20260508162030 | 59 | 278 | 4.0 | 8.0 | 0.00 | 0.00 | 0.00 | 33 | 1007.6 |
| 20260508161530 | 60 | 220 | 3.0 | 6.0 | 0.00 | 0.00 | 0.00 | 36 | 1007.6 |
| 20260508161030 | 60 | 191 | 3.0 | 6.0 | 0.00 | 0.00 | 0.00 | 31 | 1007.4 |
| 20260508160530 | 59 | 222 | 2.0 | 7.0 | 0.00 | 0.00 | 0.00 | 33 | 1007.6 |
| 20260508160030 | 58 | 281 | 3.0 | 8.0 | 0.00 | 0.00 | 0.00 | 37 | 1007.6 |
| 20260508155530 | 58 | 242 | 3.0 | 7.0 | 0.00 | 0.00 | 0.00 | 36 | 1007.6 |
| 20260508155030 | 59 | 305 | 3.0 | 8.0 | 0.00 | 0.00 | 0.00 | 33 | 1007.6 |
| 20260508154531 | 59 | 279 | 2.0 | 5.0 | 0.00 | 0.00 | 0.00 | 35 | 1007.6 |
| 20260508154030 | 59 | 274 | 2.0 | 8.0 | 0.00 | 0.00 | 0.00 | 33 | 1007.7 |
| 20260508153530 | 58 | 37 | 3.0 | 7.0 | 0.00 | 0.00 | 0.00 | 37 | 1007.6 |
| 20260508153030 | 58 | 278 | 2.0 | 7.0 | 0.00 | 0.00 | 0.00 | 34 | 1007.8 |
| 20260508152530 | 57 | 282 | 2.0 | 7.0 | 0.00 | 0.00 | 0.00 | 38 | 1007.9 |
| 20260508152031 | 57 | 259 | 5.0 | 7.0 | 0.00 | 0.00 | 0.00 | 34 | 1008.0 |
| 20260508150530 | 57 | 25 | 3.0 | 8.0 | 0.00 | 0.00 | 0.00 | 38 | 1008.0 |
| 20260508150030 | 58 | 258 | 3.0 | 8.0 | 0.00 | 0.00 | 0.00 | 40 | 1008.0 |
| 20260508145030 | 58 | 233 | 2.0 | 6.0 | 0.00 | 0.00 | 0.00 | 35 | 1008.0 |
| 20260508144530 | 57 | 219 | 3.0 | 7.0 | 0.00 | 0.00 | 0.00 | 36 | 1008.2 |
| 20260508144030 | 58 | 225 | 2.0 | 6.0 | 0.00 | 0.00 | 0.00 | 37 | 1008.2 |
| 20260508143530 | 57 | 105 | 2.0 | 6.0 | 0.00 | 0.00 | 0.00 | 42 | 1008.2 |
| 20260508143030 | 57 | 185 | 2.0 | 7.0 | 0.00 | 0.00 | 0.00 | 35 | 1008.2 |
| 20260508142530 | 57 | 272 | 2.0 | 7.0 | 0.00 | 0.00 | 0.00 | 37 | 1008.2 |
| 20260508141529 | 56 | 247 | 2.0 | 5.0 | 0.00 | 0.00 | 0.00 | 33 | 1008.1 |
| 20260508141030 | 57 | 209 | 3.0 | 6.0 | 0.00 | 0.00 | 0.00 | 34 | 1008.3 |
| 20260508140530 | 57 | 230 | 3.0 | 7.0 | 0.00 | 0.00 | 0.00 | 33 | 1008.2 |
| 20260508140030 | 56 | 184 | 2.0 | 7.0 | 0.00 | 0.00 | 0.00 | 34 | 1008.3 |
| 20260508135529 | 57 | 249 | 3.0 | 7.0 | 0.00 | 0.00 | 0.00 | 32 | 1008.3 |
| 20260508135030 | 57 | 246 | 2.0 | 5.0 | 0.00 | 0.00 | 0.00 | 35 | 1008.5 |
| 20260508134530 | 55 | 353 | 3.0 | 10.0 | 0.00 | 0.00 | 0.00 | 32 | 1008.5 |
| 20260508134030 | 55 | 289 | 2.0 | 6.0 | 0.00 | 0.00 | 0.00 | 35 | 1008.6 |
| 20260508133029 | 55 | 263 | 2.0 | 6.0 | 0.00 | 0.00 | 0.00 | 34 | 1008.7 |
| 20260508132030 | 55 | 252 | 3.0 | 7.0 | 0.00 | 0.00 | 0.00 | 34 | 1008.6 |
| 20260508131530 | 54 | 286 | 3.0 | 6.0 | 0.00 | 0.00 | 0.00 | 34 | 1008.6 |
| 20260508130530 | 54 | 269 | 1.0 | 6.0 | 0.00 | 0.00 | 0.00 | 38 | 1008.6 |
| 20260508130029 | 54 | 303 | 2.0 | 6.0 | 0.00 | 0.00 | 0.00 | 36 | 1008.6 |
| 20260508125029 | 54 | 261 | 2.0 | 6.0 | 0.00 | 0.00 | 0.00 | 36 | 1008.6 |
| 20260508124029 | 53 | 338 | 2.0 | 6.0 | 0.00 | 0.00 | 0.00 | 39 | 1008.6 |
| 20260508123030 | 52 | 259 | 3.0 | 5.0 | 0.00 | 0.00 | 0.00 | 44 | 1008.6 |
| 20260508122030 | 51 | 256 | 1.0 | 6.0 | 0.00 | 0.00 | 0.00 | 44 | 1008.6 |
| 20260508121530 | 51 | 249 | 1.0 | 6.0 | 0.00 | 0.00 | 0.00 | 41 | 1008.7 |
| 20260508121029 | 50 | 248 | 2.0 | 3.0 | 0.00 | 0.00 | 0.00 | 45 | 1008.6 |
| 20260508120529 | 50 | 244 | 1.0 | 2.0 | 0.00 | 0.00 | 0.00 | 46 | 1008.6 |
| 20260508120029 | 49 | 288 | 2.0 | 3.0 | 0.00 | 0.00 | 0.00 | 50 | 1008.6 |
| 20260508115029 | 48 | 281 | 2.0 | 3.0 | 0.00 | 0.00 | 0.00 | 48 | 1008.7 |
| 20260508114530 | 48 | 246 | 2.0 | 5.0 | 0.00 | 0.00 | 0.00 | 49 | 1008.8 |
| 20260508114029 | 48 | 240 | 2.0 | 3.0 | 0.00 | 0.00 | 0.00 | 47 | 1008.7 |
| 20260508113530 | 47 | 243 | 2.0 | 3.0 | 0.00 | 0.00 | 0.00 | 49 | 1008.8 |
| 20260508113029 | 47 | 223 | 2.0 | 3.0 | 0.00 | 0.00 | 0.00 | 51 | 1008.6 |
| 20260508112529 | 47 | 276 | 1.0 | 2.0 | 0.00 | 0.00 | 0.00 | 50 | 1008.6 |
| 20260508112029 | 46 | 229 | 1.0 | 3.0 | 0.00 | 0.00 | 0.00 | 53 | 1008.6 |
| 20260508111530 | 46 | 250 | 1.0 | 2.0 | 0.00 | 0.00 | 0.00 | 53 | 1008.6 |
| 20260508111029 | 46 | 233 | 1.0 | 2.0 | 0.00 | 0.00 | 0.00 | 53 | 1008.6 |
| 20260508110529 | 45 | 224 | 1.0 | 1.0 | 0.00 | 0.00 | 0.00 | 53 | 1008.6 |
| 20260508110030 | 45 | 244 | 1.0 | 2.0 | 0.00 | 0.00 | 0.00 | 56 | 1008.6 |
| 20260508105530 | 45 | 255 | 1.0 | 2.0 | 0.00 | 0.00 | 0.00 | 53 | 1008.5 |
| 20260508104530 | 44 | 240 | 1.0 | 2.0 | 0.00 | 0.00 | 0.00 | 59 | 1008.3 |
| 20260508104029 | 43 | 246 | 1.0 | 2.0 | 0.00 | 0.02 | 0.00 | 59 | 1008.2 |
| 20260508102029 | 42 | 236 | 0.0 | 1.0 | 0.00 | 0.02 | 0.00 | 63 | 1008.0 |
| 20260508101530 | 42 | 234 | 1.0 | 1.0 | 0.00 | 0.02 | 0.00 | 61 | 1007.9 |
| 20260508101029 | 42 | 246 | 1.0 | 1.0 | 0.00 | 0.02 | 0.00 | 61 | 1007.8 |
| 20260508100529 | 42 | 241 | 1.0 | 2.0 | 0.00 | 0.02 | 0.00 | 60 | 1007.8 |
| 20260508100030 | 42 | 238 | 1.0 | 2.0 | 0.00 | 0.02 | 0.00 | 60 | 1007.8 |
| 20260508095529 | 42 | 255 | 1.0 | 2.0 | 0.00 | 0.02 | 0.00 | 60 | 1007.7 |
| 20260508095029 | 42 | 243 | 1.0 | 2.0 | 0.00 | 0.02 | 0.00 | 60 | 1007.7 |
| 20260508094530 | 42 | 255 | 1.0 | 2.0 | 0.00 | 0.02 | 0.00 | 62 | 1007.7 |
| 20260508094029 | 42 | 237 | 1.0 | 2.0 | 0.00 | 0.02 | 0.00 | 62 | 1007.6 |
| 20260508093529 | 42 | 253 | 1.0 | 2.0 | 0.00 | 0.02 | 0.00 | 62 | 1007.6 |
| 20260508093029 | 41 | 248 | 1.0 | 1.0 | 0.00 | 0.02 | 0.00 | 63 | 1007.4 |